This is the latest recevied weather packets stored in our database for station/object DL9GJ-6. If no packets are shown the sender has not sent any weather packets the latest 10 day(s).
| Time | Temp. | Humidity | Pressure | Rain* | Wind** | Luminosity | Snow |
|---|---|---|---|---|---|---|---|
| 1777544278 | 12.22° C | 39% | 1025.4 hPa | 0 mm | - | 835 W/m² | - |
| 1777543919 | 11.67° C | 40% | 1025.4 hPa | 0 mm | - | 827 W/m² | - |
| 1777543610 | 11.67° C | 39% | 1025.5 hPa | 0 mm | - | 826 W/m² | - |
| 1777543559 | 11.67° C | 39% | 1025.5 hPa | 0 mm | - | 826 W/m² | - |
| 1777543198 | 12.22° C | 40% | 1025.4 hPa | 0 mm | - | 820 W/m² | - |
| 1777542838 | 11.67° C | 41% | 1025.3 hPa | 0 mm | - | 818 W/m² | - |
| 1777542478 | 11.67° C | 38% | 1025.5 hPa | 0 mm | - | 816 W/m² | - |
| 1777542118 | 12.22° C | 37% | 1025.5 hPa | 0 mm | - | 812 W/m² | - |
| 1777541808 | 11.67° C | 41% | 1025.5 hPa | 0 mm | - | 805 W/m² | - |
| 1777541759 | 11.67° C | 41% | 1025.5 hPa | 0 mm | - | 805 W/m² | - |
| 1777541451 | 11.67° C | 40% | 1025.5 hPa | 0 mm | - | 798 W/m² | - |
| 1777541399 | 11.67° C | 40% | 1025.5 hPa | 0 mm | - | 757 W/m² | - |
| 1777541039 | 11.11° C | 40% | 1025.6 hPa | 0 mm | - | 700 W/m² | - |
| 1777540730 | 10.56° C | 40% | 1025.7 hPa | 0 mm | - | 771 W/m² | - |
| 1777540677 | 10.56° C | 40% | 1025.7 hPa | 0 mm | - | 771 W/m² | - |
| 1777540317 | 10.56° C | 40% | 1025.7 hPa | 0 mm | - | 769 W/m² | - |
| 1777540009 | 11.11° C | 41% | 1025.6 hPa | 0 mm | - | 762 W/m² | - |
| 1777539958 | 11.11° C | 41% | 1025.6 hPa | 0 mm | - | 762 W/m² | - |
| 1777539598 | 11.11° C | 42% | 1025.6 hPa | 0 mm | - | 744 W/m² | - |
| 1777539239 | 10.56° C | 44% | 1025.6 hPa | 0 mm | - | 736 W/m² | - |
| 1777538879 | 10° C | 43% | 1025.6 hPa | 0 mm | - | 725 W/m² | - |
| 1777538519 | 10° C | 41% | 1025.7 hPa | 0 mm | - | 716 W/m² | - |
| 1777538209 | 10° C | 43% | 1025.8 hPa | 0 mm | - | 704 W/m² | - |
| 1777538158 | 10° C | 43% | 1025.8 hPa | 0 mm | - | 704 W/m² | - |
| 1777537850 | 9.44° C | 43% | 1025.7 hPa | 0 mm | - | 693 W/m² | - |
* Rain latest hour (hover to see other rain measurements)
** Current wind speed in m/s (hover to see current wind gust speed)